{"data":{"norad_id":68332,"epoch":"2026-05-24T23:33:11.581056Z","epoch_age_seconds":86907,"freshness":"FRESH","line1":"1 68332U 26059M   26144.98138404  .00017901  00000+0  61444-3 0  9997","line2":"2 68332  53.1602 354.0910 0001110  93.9903 266.1225 15.30233145  9852","mean_motion":15.30233145,"eccentricity":0.000111,"inclination_deg":53.1602,"raan_deg":354.091,"arg_perigee_deg":93.9903,"mean_anomaly_deg":266.1225,"bstar":0.00061444,"rev_number":985,"period_min":94.103307375426,"perigee_km":474.35539511529,"apogee_km":475.87681730487,"semimajor_km":6853.2531062101,"source":"CELESTRAK","updated_at":"2026-05-25T13:38:21.923694Z"}}